Location: Innsbruck
(47.2657°N, 11.3914°E)
Time: 20:03:31
(UTC+01:00)

BEESAT 3 - Pass Details

Date: 09 December 2021
Orbit: 472 x 512 km, 64.9° (Epoch: 23 January)

Event Time Altitude Azimuth Distance (km) Brightness Sun altitude
Rises 19:13:48 0° 242° (WSW) 2,557 ? -27.7°
Reaches altitude 10° 19:16:05 10° 252° (WSW) 1,687 ? -28.1°
Enters shadow 19:18:33 28° 288° (WNW) 972 ? -28.5°
